SCP
0 0 0 0 0 0 0 0 0 0 0 0 0 0 0 0 0 0 0 0 0 -0 0 0 0 0 0 0 0 0 0 0 0 0 0 0 0 0 0 0 0 0 0 0
0 0 0 0 0 0 0 0 0 0 0 0 0 0 0 0 0 0 0 0 0 0 -0 -0 -0 0 0 0 0 0 0 0 0 0 0 0 0 0 0 0 0 0 0 0
0 0 0 0 0 0 0 0 0 0 0 0 0 0 0 0 0 0 0 0 0 0 -0 0 0 0 0 0 0 0 0 0 0 0 0 0 0 0 0 0 0 0 0 0
0 0 0 0 0 0 0 0 0 0 0 0 0 0 0 0 0 0 0 0 0 0 0 0 -0 0 0 0 0 0 0 0 0 0 0 0 0 0 0 0 0 0 0 0
0 0 0 0 0 0 0 0 0 0 0 0 0 0 0 0 0 0 0 0 0 0 0 0 0 0 0 0 0 0 0 0 0 0 0 0 0 0 0 0 0 0 0 0
0 0 0 0 0 0 0 0 0 0 0 0 0 0 0 0 0 0 0 0 0 0 0 0 0 0 0 0 0 0 0 0 0 0 0 0 0 0 0 0 0 0 0 0
0 0 0 0 0 0 0 0 0 0 0 0 0 0 0 0 0 0 0 0 0 0 0 0 0 0 0 0 0 0 0 0 0 0 0 0 0 0 0 0 0 0 0 0
0 0 0 0 0 0 0 0 0 0 0 0 0 0 0 0 0 0 0 0 0 0 0 0 0 0 0 0 0 0 0 0 0 0 0 0 0 0 0 0 0 0 0 0
0 0 0 0 0 0 0 -0 0 0 0 0 0 0 0 0 0 0 0 0 0 0 0 0 0 0 0 0 0 0 0 0 0 0 0 0 0 0 0 0 0 0 0 0
0 -0 0 0 0 0 0 -0 0 0 0 -0 0 0 0 0 0 0 0 0 0 0 0 0 0 0 0 0 0 0 0 0 0 0 0 0 0 0 0 0 0 0 0 0
0 0 0 0 0 0 0 -0 0 0 -0 0 0 0 0 0 -0 0 0 0 0 0 0 0 0 0 0 0 0 0 0 0 0 0 0 0 0 0 0 0 0 0 0 0
0 -0 -0 0 0 0 0 -0 0 0 0 -0 0 0 0 0 0 0 0 0 0 0 0 0 0 0 0 0 0 0 0 0 0 0 0 0 0 0 0 0 0 0 0 0
0 -0 -0 -0 -0 -0 0 -0 -0 0 -0 0 0 0 0 0 0 0 0 0 0 0 0 0 0 0 0 0 0 0 0 0 0 0 0 0 0 0 0 0 0 0 0 0
0 -0 0 -0 -0 -0 0 -0 -0 -0 0 0 0 0 0 0 0 0 0 0 0 0 0 0 0 0 0 0 0 0 0 0 0 0 0 0 0 0 0 0 0 0 0 0
0 0 -0 -0 0 -0 -0 -0 -0 0 -0 0 0 0 0 0 0 0 0 0 0 0 0 0 0 0 0 0 0 0 0 0 0 0 0 0 0 0 0 0 0 0 0 0
0 -0 -0 -0 0 0 0 0 0 -0 0 -0 0 0 0 0 0 0 0 0 0 0 0 0 0 0 0 0 0 0 0 0 0 0 0 0 0 0 0 0 0 0 0 0
-0 -0 -0 -0 0 0 0 0 0 0 0 0 0 0 0 0 0 0 -0 -0 0 0 0 0 0 0 0 0 0 0 0 0 0 0 0 0 0 0 0 0 0 0 -0 -0
-0 -0 -0 -0 -0 0 0 0 -0 0 0 0 0 0 0 0 0 0 0 0 0 0 0 0 0 0 -0 0 0 0 0 0 0 0 0 0 0 0 0 0 0 0 -0 0
-0 -0 0 0 0 0 0 -0 0 0 0 0 0 0 0 0 0 0 0 0 0 0 0 0 0 0 0 -0 0 0 0 0 0 0 0 0 0 0 0 0 -0 -0 -0 -0
-0 0 0 0 0 0 0 0 0 0 0 0 0 0 0 0 0 0 0 0 0 -0 -0 -0 0 0 -0 0 -0 -0 -0 0 0 0 0 0 0 0 0 -0 -0 -0 -0 0
-0 0 0 0 0 0 0 0 0 0 0 -0 0 0 0 0 0 0 0 0 0 0 0 0 0 -0 0 -0 -0 -0 0 0 0 0 0 0 0 -0 -0 0 -0 0 0 -0
0 0 0 0 0 0 0 0 0 0 0 0 -0 0 0 0 0 0 -0 0 0 0 0 -0 0 0 -0 -0 -0 0 0 0 0 0 0 0 -0 -0 0 -0 -0 -0 -0 0
0 0 0 0 0 0 0 0 0 0 -0 0 0 0 0 0 0 0 0 0 0 0 -0 -0 0 -0 -0 -0 -0 0 0 0 0 0 0 -0 -0 0 0 -0 0 -0 0 0
0 0 0 0 0 0 0 0 0 0 0 0 -0 0 0 0 0 0 0 0 0 -0 -0 0 -0 -0 -0 -0 0 0 0 0 -0 0 -0 0 0 0 0 -0 0 0 0 0
0 0 0 0 0 0 0 0 0 0 0 -0 0 0 0 0 0 0 0 0 0 -0 0 0 -0 -0 -0 -0 -0 -0 -0 0 0 0 -0 0 0 0 0 -0 0 0 0 0
0 0 0 0 0 0 0 0 0 0 0 0 0 0 0 -0 0 0 -0 -0 0 0 0 -0 -0 -0 -0 -0 -0 -0 0 0 0 0 -0 0 0 0 -0 -0 -0 0 0 0
0 0 0 0 0 0 0 0 0 0 0 0 0 0 0 -0 -0 -0 0 -0 0 0 0 -0 -0 -0 -0 -0 -0 -0 0 0 0 -0 -0 0 -0 -0 -0 -0 -0 -0 -0 -0
Wind_Speed_500mb
52 54 49 48 53 60 44 18 8 10 25 16 25 23 15 4 20 6 6 19 7 12 12 6 15 8 10 7 10 21 10 9 14 22 8 5 11 19 14 17 27 15 19 14
44 48 53 47 46 46 47 27 12 11 15 11 19 22 19 19 13 10 11 13 17 9 16 9 19 12 3 7 6 10 13 11 15 11 24 18 20 23 19 12 9 23 19 8
44 45 47 39 37 38 32 13 8 6 14 14 19 23 24 14 6 6 5 9 13 14 14 9 13 14 6 4 10 10 4 12 12 2 6 4 22 21 26 23 19 25 25 24
44 45 44 36 31 31 23 6 5 4 7 6 19 18 21 16 8 3 8 11 25 11 7 9 10 9 16 8 6 5 2 11 10 2 1 3 5 12 19 21 21 22 21 24
40 40 42 45 31 23 8 10 12 20 35 20 19 13 18 17 9 7 15 14 15 7 3 3 0 4 7 2 6 5 1 9 12 22 8 17 25 28 30 31 30 31 30 32
36 37 37 38 36 25 9 11 14 12 20 12 16 6 18 14 7 3 12 11 14 12 11 8 7 7 7 6 2 7 7 9 10 18 4 12 21 31 35 32 27 21 24 8
32 33 34 34 35 25 21 26 23 14 14 16 14 24 18 22 13 7 14 2 7 12 14 11 6 4 4 4 7 2 7 9 6 5 6 15 13 3 3 8 5 6 4 6
37 35 32 31 31 29 23 25 18 11 12 14 21 14 17 4 3 14 11 7 10 14 9 7 7 8 9 6 3 9 7 7 5 5 8 17 10 7 3 6 3 7 12 5
40 39 31 28 26 30 25 27 25 21 15 7 12 17 15 8 2 17 11 7 4 4 7 5 7 8 5 8 10 5 6 6 6 7 5 5 12 6 2 2 12 13 3 4
36 36 29 30 24 27 26 30 22 17 10 24 15 12 7 2 8 6 6 6 9 6 6 8 8 7 6 12 14 11 9 9 15 11 8 11 11 9 5 11 6 6 6 10
39 34 30 31 29 27 28 30 27 21 9 24 24 23 14 6 7 4 2 9 6 6 8 5 4 7 7 6 6 14 13 13 9 13 11 14 11 11 11 8 5 8 9 8
40 37 32 34 30 30 29 30 24 16 17 26 27 22 30 21 8 10 5 6 2 5 2 4 2 7 6 9 7 9 9 9 5 11 3 7 3 10 9 8 8 8 10 12
40 39 34 36 32 25 26 29 24 19 14 28 29 14 7 13 28 16 9 3 3 3 3 3 2 5 5 7 9 4 9 9 9 6 11 1 6 8 6 6 10 9 12 17
40 36 35 37 30 27 23 27 19 19 3 5 8 7 3 3 10 17 10 1 5 6 4 5 5 6 3 4 4 13 6 7 11 17 13 7 9 10 8 7 7 10 14 19
40 36 34 32 27 17 13 21 22 16 9 6 9 4 5 10 11 12 9 9 9 6 6 5 3 2 4 5 7 14 17 15 10 5 7 7 6 6 7 12 16 18 22 25
37 36 33 25 22 12 13 7 9 22 21 5 3 5 7 18 11 8 10 10 4 3 4 2 1 1 6 4 5 6 8 8 4 4 3 5 7 5 11 17 18 22 21 24
34 34 29 21 19 15 10 6 9 13 18 2 5 8 8 17 14 10 12 9 5 0 4 4 2 5 10 5 4 10 5 12 14 5 3 4 4 17 14 17 21 23 28 34
38 31 23 22 17 17 15 18 6 11 10 5 4 3 9 17 10 7 7 8 6 2 0 3 5 9 10 7 11 6 9 9 10 8 8 8 6 9 14 19 26 31 32 35
35 35 19 11 16 10 9 6 8 9 5 3 6 6 5 15 5 0 2 3 3 1 4 4 6 7 8 6 1 8 12 5 8 4 5 6 9 12 18 26 28 36 41 43
32 19 5 5 8 11 10 6 4 6 5 6 6 1 6 4 10 4 5 4 5 6 8 8 7 8 9 4 12 16 20 6 4 1 6 10 12 17 23 24 34 40 37 33
10 3 3 4 17 8 4 4 4 5 7 10 5 7 6 8 4 5 9 2 3 4 6 5 5 5 6 17 19 20 16 12 15 16 13 13 14 17 19 29 39 39 37 30
24 20 4 5 3 2 4 4 5 7 2 9 7 11 8 9 6 6 7 2 4 4 9 3 4 8 20 22 22 19 17 20 19 16 15 12 16 18 19 26 38 39 32 28
3 3 4 3 3 5 7 11 6 5 11 12 13 12 11 9 9 3 4 6 5 14 4 5 1 26 28 24 22 20 21 20 17 16 14 14 17 20 24 23 34 39 34 30
2 2 4 5 6 6 3 2 4 6 7 15 24 14 6 5 8 4 6 5 2 5 6 3 8 31 31 24 20 24 21 17 16 16 15 16 19 21 24 23 28 36 43 34
3 2 3 5 4 5 10 9 5 6 7 22 12 5 4 5 5 4 3 6 6 5 2 5 25 33 30 25 22 24 20 17 14 13 15 18 19 20 22 25 25 29 37 43
3 4 6 6 3 3 6 6 6 16 16 13 6 4 4 6 3 5 5 5 4 4 2 30 32 32 28 23 22 23 19 16 14 14 16 18 19 19 21 24 26 31 33 40
4 2 6 7 13 10 7 2 3 9 22 6 4 4 4 5 5 5 3 3 4 5 13 22 27 31 29 24 24 23 19 18 18 15 17 21 22 19 21 25 27 28 31 35
Wind_Direction_500mb
344 342 341 343 350 347 352 349 292 2 142 223 219 241 222 260 270 165 197 336 189 174 135 324 22 324 28 2 240 192 208 204 264 234 40 268 271 278 275 222 246 261 287 271
340 342 342 348 351 354 346 327 278 242 258 257 242 258 249 239 271 251 176 160 292 171 172 169 199 190 189 316 272 184 184 205 223 219 210 213 236 214 252 254 253 237 241 249
341 342 344 349 348 352 346 316 299 173 216 276 297 294 271 237 220 156 182 145 267 173 181 179 174 159 158 155 107 52 255 214 230 276 352 191 212 224 231 239 249 255 250 251
346 346 346 342 340 340 353 301 27 358 315 273 318 296 285 279 205 119 166 171 228 229 218 193 176 164 150 142 118 94 272 252 246 176 297 324 293 222 210 237 253 261 273 286
345 344 348 349 330 335 338 321 336 325 287 282 294 276 265 275 217 242 198 237 169 170 228 350 325 207 217 130 151 171 152 227 268 259 258 270 266 256 252 255 260 266 268 274
336 339 344 344 333 333 320 310 297 292 292 278 289 319 326 327 287 153 305 214 170 139 98 81 51 68 76 81 227 167 207 226 233 256 91 281 262 246 241 249 250 265 259 327
329 332 335 343 337 317 316 298 306 279 289 316 315 325 298 293 310 195 356 268 157 104 114 108 116 144 164 172 122 16 167 194 190 249 224 229 65 46 252 275 243 193 291 303
328 328 328 328 337 317 299 277 300 271 287 296 277 312 308 258 211 123 157 314 83 138 159 199 175 157 167 156 205 206 249 202 210 242 243 320 190 158 221 281 181 212 262 197
328 324 320 326 327 322 297 273 280 267 290 326 338 314 297 291 211 146 161 110 109 187 245 201 238 201 161 162 140 107 174 273 215 175 246 267 85 120 279 278 250 94 292 346
326 331 324 319 322 316 292 273 284 283 288 290 309 279 327 114 333 311 161 146 189 244 239 226 229 197 275 178 182 164 170 187 208 190 238 275 101 153 232 238 81 78 335 324
332 327 318 314 315 313 298 276 273 275 248 272 274 284 272 260 190 245 132 210 187 203 222 243 176 249 185 214 151 168 171 183 192 212 218 248 121 179 242 28 343 338 325 331
325 327 311 316 319 304 292 276 279 270 252 271 283 264 281 267 278 307 182 30 75 36 255 244 253 201 196 227 199 188 214 219 198 204 233 106 191 307 325 319 325 332 323 333
322 322 307 317 315 301 281 263 277 285 267 284 248 286 256 262 234 241 290 153 92 150 334 306 7 248 291 212 229 252 221 208 236 227 186 331 319 308 320 333 327 342 324 313
323 319 311 316 317 309 273 251 268 292 269 260 259 3 252 343 164 189 204 28 167 136 218 251 255 243 241 227 4 259 55 205 245 250 259 307 68 54 15 350 337 326 312 308
319 315 316 319 315 305 260 255 260 266 233 287 342 286 6 130 138 144 158 156 167 193 198 219 227 12 263 228 284 247 220 242 246 302 63 323 344 332 330 320 317 313 310 308
317 310 315 314 309 263 271 263 256 234 234 242 222 192 160 170 150 149 135 132 123 117 264 156 180 82 258 251 222 269 225 216 289 48 290 298 4 340 331 322 313 308 302 304
311 310 303 304 293 254 261 308 289 266 199 265 276 153 118 140 136 160 183 167 144 122 122 213 195 172 214 262 235 164 112 121 128 148 276 247 354 341 328 322 318 309 302 302
320 326 302 291 255 242 260 269 347 207 203 191 250 116 157 175 165 187 213 192 162 91 74 182 214 155 217 253 228 164 129 120 112 88 42 12 354 339 341 336 330 323 316 320
311 317 303 287 199 206 214 268 241 210 202 226 239 204 151 177 119 0 136 153 140 190 256 225 203 210 224 265 141 125 141 136 129 86 31 23 14 359 351 342 341 333 327 322
317 295 254 215 183 220 162 134 181 206 225 226 265 209 124 225 156 107 183 204 183 207 183 183 222 243 237 337 107 108 144 159 112 242 68 22 15 4 355 354 347 335 329 330
327 307 304 98 155 132 147 143 222 197 212 198 217 221 125 176 160 145 220 248 182 248 159 218 212 209 83 122 114 113 117 108 96 89 69 51 31 9 6 0 347 347 345 344
304 296 270 138 136 160 206 194 171 222 228 169 196 168 160 164 182 198 173 239 208 255 142 249 223 116 138 137 125 121 114 113 99 79 65 55 35 25 19 6 351 -0 360 2
253 212 213 203 172 201 229 177 181 200 173 167 168 156 171 156 206 160 152 225 243 134 215 211 55 132 141 144 135 124 119 113 100 76 65 56 40 37 25 18 360 15 19 18
267 205 189 247 176 227 199 277 37 80 154 152 165 150 188 136 176 117 234 190 286 245 223 116 135 158 148 145 138 135 127 120 104 81 65 57 54 44 35 30 14 18 29 31
285 292 253 217 2 335 320 343 280 138 162 156 164 155 147 140 184 209 272 215 225 247 55 97 149 150 150 145 143 140 134 127 107 86 66 64 59 49 39 36 32 27 27 40
282 266 279 337 295 258 255 280 243 210 196 175 166 181 192 162 195 221 223 278 326 57 333 131 143 150 149 145 144 147 135 130 121 94 73 69 64 56 52 47 43 43 41 40
302 301 298 282 273 287 55 343 209 182 183 195 146 195 197 137 199 210 355 282 8 299 138 141 150 153 150 146 144 144 141 138 128 98 78 70 71 71 64 56 50 51 52 54
Wind_Speed_850mb
52 54 49 48 53 60 44 18 8 10 25 16 25 23 15 4 20 6 6 19 7 12 12 6 15 8 10 7 10 21 10 9 14 22 8 5 11 19 14 17 27 15 19 14
44 48 53 47 46 46 47 27 12 11 15 11 19 22 19 19 13 10 11 13 17 9 16 9 19 12 3 7 6 10 13 11 15 11 24 18 20 23 19 12 9 23 19 8
44 45 47 39 37 38 32 13 8 6 14 14 19 23 24 14 6 6 5 9 13 14 14 9 13 14 6 4 10 10 4 12 12 2 6 4 22 21 26 23 19 25 25 24
44 45 44 36 31 31 23 6 5 4 7 6 19 18 21 16 8 3 8 11 25 11 7 9 10 9 16 8 6 5 2 11 10 2 1 3 5 12 19 21 21 22 21 24
40 40 42 45 31 23 8 10 12 20 35 20 19 13 18 17 9 7 15 14 15 7 3 3 0 4 7 2 6 5 1 9 12 22 8 17 25 28 30 31 30 31 30 32
36 37 37 38 36 25 9 11 14 12 20 12 16 6 18 14 7 3 12 11 14 12 11 8 7 7 7 6 2 7 7 9 10 18 4 12 21 31 35 32 27 21 24 8
32 33 34 34 35 25 21 26 23 14 14 16 14 24 18 22 13 7 14 2 7 12 14 11 6 4 4 4 7 2 7 9 6 5 6 15 13 3 3 8 5 6 4 6
37 35 32 31 31 29 23 25 18 11 12 14 21 14 17 4 3 14 11 7 10 14 9 7 7 8 9 6 3 9 7 7 5 5 8 17 10 7 3 6 3 7 12 5
40 39 31 28 26 30 25 27 25 21 15 7 12 17 15 8 2 17 11 7 4 4 7 5 7 8 5 8 10 5 6 6 6 7 5 5 12 6 2 2 12 13 3 4
36 36 29 30 24 27 26 30 22 17 10 24 15 12 7 2 8 6 6 6 9 6 6 8 8 7 6 12 14 11 9 9 15 11 8 11 11 9 5 11 6 6 6 10
39 34 30 31 29 27 28 30 27 21 9 24 24 23 14 6 7 4 2 9 6 6 8 5 4 7 7 6 6 14 13 13 9 13 11 14 11 11 11 8 5 8 9 8
40 37 32 34 30 30 29 30 24 16 17 26 27 22 30 21 8 10 5 6 2 5 2 4 2 7 6 9 7 9 9 9 5 11 3 7 3 10 9 8 8 8 10 12
40 39 34 36 32 25 26 29 24 19 14 28 29 14 7 13 28 16 9 3 3 3 3 3 2 5 5 7 9 4 9 9 9 6 11 1 6 8 6 6 10 9 12 17
40 36 35 37 30 27 23 27 19 19 3 5 8 7 3 3 10 17 10 1 5 6 4 5 5 6 3 4 4 13 6 7 11 17 13 7 9 10 8 7 7 10 14 19
40 36 34 32 27 17 13 21 22 16 9 6 9 4 5 10 11 12 9 9 9 6 6 5 3 2 4 5 7 14 17 15 10 5 7 7 6 6 7 12 16 18 22 25
37 36 33 25 22 12 13 7 9 22 21 5 3 5 7 18 11 8 10 10 4 3 4 2 1 1 6 4 5 6 8 8 4 4 3 5 7 5 11 17 18 22 21 24
34 34 29 21 19 15 10 6 9 13 18 2 5 8 8 17 14 10 12 9 5 0 4 4 2 5 10 5 4 10 5 12 14 5 3 4 4 17 14 17 21 23 28 34
38 31 23 22 17 17 15 18 6 11 10 5 4 3 9 17 10 7 7 8 6 2 0 3 5 9 10 7 11 6 9 9 10 8 8 8 6 9 14 19 26 31 32 35
35 35 19 11 16 10 9 6 8 9 5 3 6 6 5 15 5 0 2 3 3 1 4 4 6 7 8 6 1 8 12 5 8 4 5 6 9 12 18 26 28 36 41 43
32 19 5 5 8 11 10 6 4 6 5 6 6 1 6 4 10 4 5 4 5 6 8 8 7 8 9 4 12 16 20 6 4 1 6 10 12 17 23 24 34 40 37 33
10 3 3 4 17 8 4 4 4 5 7 10 5 7 6 8 4 5 9 2 3 4 6 5 5 5 6 17 19 20 16 12 15 16 13 13 14 17 19 29 39 39 37 30
24 20 4 5 3 2 4 4 5 7 2 9 7 11 8 9 6 6 7 2 4 4 9 3 4 8 20 22 22 19 17 20 19 16 15 12 16 18 19 26 38 39 32 28
3 3 4 3 3 5 7 11 6 5 11 12 13 12 11 9 9 3 4 6 5 14 4 5 1 26 28 24 22 20 21 20 17 16 14 14 17 20 24 23 34 39 34 30
2 2 4 5 6 6 3 2 4 6 7 15 24 14 6 5 8 4 6 5 2 5 6 3 8 31 31 24 20 24 21 17 16 16 15 16 19 21 24 23 28 36 43 34
3 2 3 5 4 5 10 9 5 6 7 22 12 5 4 5 5 4 3 6 6 5 2 5 25 33 30 25 22 24 20 17 14 13 15 18 19 20 22 25 25 29 37 43
3 4 6 6 3 3 6 6 6 16 16 13 6 4 4 6 3 5 5 5 4 4 2 30 32 32 28 23 22 23 19 16 14 14 16 18 19 19 21 24 26 31 33 40
4 2 6 7 13 10 7 2 3 9 22 6 4 4 4 5 5 5 3 3 4 5 13 22 27 31 29 24 24 23 19 18 18 15 17 21 22 19 21 25 27 28 31 35
Wind_Direction_850mb
344 342 341 343 350 347 352 349 292 2 142 223 219 241 222 260 270 165 197 336 189 174 135 324 22 324 28 2 240 192 208 204 264 234 40 268 271 278 275 222 246 261 287 271
340 342 342 348 351 354 346 327 278 242 258 257 242 258 249 239 271 251 176 160 292 171 172 169 199 190 189 316 272 184 184 205 223 219 210 213 236 214 252 254 253 237 241 249
341 342 344 349 348 352 346 316 299 173 216 276 297 294 271 237 220 156 182 145 267 173 181 179 174 159 158 155 107 52 255 214 230 276 352 191 212 224 231 239 249 255 250 251
346 346 346 342 340 340 353 301 27 358 315 273 318 296 285 279 205 119 166 171 228 229 218 193 176 164 150 142 118 94 272 252 246 176 297 324 293 222 210 237 253 261 273 286
345 344 348 349 330 335 338 321 336 325 287 282 294 276 265 275 217 242 198 237 169 170 228 350 325 207 217 130 151 171 152 227 268 259 258 270 266 256 252 255 260 266 268 274
336 339 344 344 333 333 320 310 297 292 292 278 289 319 326 327 287 153 305 214 170 139 98 81 51 68 76 81 227 167 207 226 233 256 91 281 262 246 241 249 250 265 259 327
329 332 335 343 337 317 316 298 306 279 289 316 315 325 298 293 310 195 356 268 157 104 114 108 116 144 164 172 122 16 167 194 190 249 224 229 65 46 252 275 243 193 291 303
328 328 328 328 337 317 299 277 300 271 287 296 277 312 308 258 211 123 157 314 83 138 159 199 175 157 167 156 205 206 249 202 210 242 243 320 190 158 221 281 181 212 262 197
328 324 320 326 327 322 297 273 280 267 290 326 338 314 297 291 211 146 161 110 109 187 245 201 238 201 161 162 140 107 174 273 215 175 246 267 85 120 279 278 250 94 292 346
326 331 324 319 322 316 292 273 284 283 288 290 309 279 327 114 333 311 161 146 189 244 239 226 229 197 275 178 182 164 170 187 208 190 238 275 101 153 232 238 81 78 335 324
332 327 318 314 315 313 298 276 273 275 248 272 274 284 272 260 190 245 132 210 187 203 222 243 176 249 185 214 151 168 171 183 192 212 218 248 121 179 242 28 343 338 325 331
325 327 311 316 319 304 292 276 279 270 252 271 283 264 281 267 278 307 182 30 75 36 255 244 253 201 196 227 199 188 214 219 198 204 233 106 191 307 325 319 325 332 323 333
322 322 307 317 315 301 281 263 277 285 267 284 248 286 256 262 234 241 290 153 92 150 334 306 7 248 291 212 229 252 221 208 236 227 186 331 319 308 320 333 327 342 324 313
323 319 311 316 317 309 273 251 268 292 269 260 259 3 252 343 164 189 204 28 167 136 218 251 255 243 241 227 4 259 55 205 245 250 259 307 68 54 15 350 337 326 312 308
319 315 316 319 315 305 260 255 260 266 233 287 342 286 6 130 138 144 158 156 167 193 198 219 227 12 263 228 284 247 220 242 246 302 63 323 344 332 330 320 317 313 310 308
317 310 315 314 309 263 271 263 256 234 234 242 222 192 160 170 150 149 135 132 123 117 264 156 180 82 258 251 222 269 225 216 289 48 290 298 4 340 331 322 313 308 302 304
311 310 303 304 293 254 261 308 289 266 199 265 276 153 118 140 136 160 183 167 144 122 122 213 195 172 214 262 235 164 112 121 128 148 276 247 354 341 328 322 318 309 302 302
320 326 302 291 255 242 260 269 347 207 203 191 250 116 157 175 165 187 213 192 162 91 74 182 214 155 217 253 228 164 129 120 112 88 42 12 354 339 341 336 330 323 316 320
311 317 303 287 199 206 214 268 241 210 202 226 239 204 151 177 119 0 136 153 140 190 256 225 203 210 224 265 141 125 141 136 129 86 31 23 14 359 351 342 341 333 327 322
317 295 254 215 183 220 162 134 181 206 225 226 265 209 124 225 156 107 183 204 183 207 183 183 222 243 237 337 107 108 144 159 112 242 68 22 15 4 355 354 347 335 329 330
327 307 304 98 155 132 147 143 222 197 212 198 217 221 125 176 160 145 220 248 182 248 159 218 212 209 83 122 114 113 117 108 96 89 69 51 31 9 6 0 347 347 345 344
304 296 270 138 136 160 206 194 171 222 228 169 196 168 160 164 182 198 173 239 208 255 142 249 223 116 138 137 125 121 114 113 99 79 65 55 35 25 19 6 351 -0 360 2
253 212 213 203 172 201 229 177 181 200 173 167 168 156 171 156 206 160 152 225 243 134 215 211 55 132 141 144 135 124 119 113 100 76 65 56 40 37 25 18 360 15 19 18
267 205 189 247 176 227 199 277 37 80 154 152 165 150 188 136 176 117 234 190 286 245 223 116 135 158 148 145 138 135 127 120 104 81 65 57 54 44 35 30 14 18 29 31
285 292 253 217 2 335 320 343 280 138 162 156 164 155 147 140 184 209 272 215 225 247 55 97 149 150 150 145 143 140 134 127 107 86 66 64 59 49 39 36 32 27 27 40
282 266 279 337 295 258 255 280 243 210 196 175 166 181 192 162 195 221 223 278 326 57 333 131 143 150 149 145 144 147 135 130 121 94 73 69 64 56 52 47 43 43 41 40
302 301 298 282 273 287 55 343 209 182 183 195 146 195 197 137 199 210 355 282 8 299 138 141 150 153 150 146 144 144 141 138 128 98 78 70 71 71 64 56 50 51 52 54